Flag for Netherlands Weather past 2 weeks in Ede, Netherlands

Now
54 °F

Partly cloudy.


Feels Like: 48 °F
Forecast: 44 / 54 °F
Wind: 23 mph from Southwest

Location: Deelen

Current Time: Dec 18, 2014 at 10:45:18 PM

Latest Report: Dec 18, 2014 at 9:55 PM


Visibility: 3 mi

Pressure: 29.80 "Hg

Humidity: 94%

Dew point: 52 °F

Location of EdeLocation

Historic Weather in Ede — Graph

°F

Ede temperature yesterday

Maximum temperature yesterday: 50 °F (at 3:25 PM)
Minimum temperature yesterday: 37 °F (at 12:25 AM)
Average temperature yesterday: 44 °F

Past Weeks' High & Low Weather Summary

 TemperatureHumidityPressure
High54 °F (Dec 18, 1:55 PM)100% (Dec 4, 3:25 PM)30.33 "Hg (Dec 4, 3:25 PM)
Low27 °F (Dec 3, 9:25 PM)66% (Dec 10, 2:25 PM)29.30 "Hg (Dec 12, 11:55 AM)
Average39 °F94%29.91 "Hg
* Reported Dec 3 9:25 PM — Dec 18 9:25 PM, Ede, Weather by CustomWeather, © 2014

Note: Actual official high and low records may vary slightly from our data, if they occured in-between our weather recording intervals... More about our weather records

Advertising

Ede weather history for previous 24 hours

 ConditionsComfort  
Time TempWeatherWind HumidityBarometerVisibility
9:25 PM
Dec 18
54 °FFog.23 mph94%29.80 "Hg2 mi
8:55 PM54 °FFog.24 mph94%29.80 "Hg2 mi
8:25 PM52 °FFog.23 mph100%29.80 "Hg4 mi
7:55 PM52 °FDrizzle. Overcast.21 mph94%29.80 "Hg2 mi
7:25 PM52 °FDrizzle. Overcast.21 mph94%29.80 "Hg2 mi
6:55 PM54 °FDrizzle. Mostly cloudy.22 mph88%29.80 "Hg4 mi
6:25 PM54 °FMostly cloudy.20 mph88%29.77 "HgN/A
5:55 PM54 °FDrizzle. Low clouds.21 mph94%29.77 "Hg6 mi
5:25 PM54 °FDrizzle. Mostly cloudy.18 mph94%29.77 "Hg4 mi
4:55 PM54 °FMostly cloudy.22 mph94%29.77 "HgN/A
4:25 PM54 °FMostly cloudy.21 mph94%29.77 "HgN/A
3:55 PM54 °FMostly cloudy.22 mph94%29.74 "HgN/A
3:25 PM54 °FMore clouds than sun.20 mph94%29.74 "HgN/A
2:55 PM54 °FMore clouds than sun.18 mph94%29.77 "HgN/A
2:25 PM54 °FMore clouds than sun.15 mph94%29.77 "HgN/A
1:55 PM54 °FPartly sunny.14 mph94%29.77 "HgN/A
1:25 PM52 °FFog.14 mph100%29.77 "Hg3 mi
12:55 PM52 °FFog.15 mph100%29.77 "Hg3 mi
12:25 PM52 °FDrizzle. Cloudy.16 mph100%29.77 "Hg1 mi
11:55 AM52 °FDrizzle. Mostly cloudy.14 mph100%29.77 "Hg1 mi
11:25 AM52 °FFog.15 mph100%29.77 "Hg3 mi
10:55 AM52 °FFog.13 mph100%29.77 "Hg4 mi
10:25 AM52 °FFog.14 mph100%29.77 "Hg4 mi
9:55 AM52 °FFog.12 mph100%29.77 "Hg4 mi
9:25 AM52 °FLight rain. Mostly cloudy.12 mph100%29.77 "Hg2 mi
8:55 AM50 °FDrizzle. More clouds than sun.12 mph100%29.77 "Hg1 mi
8:25 AM50 °FDrizzle. Mostly cloudy.10 mph100%29.77 "Hg2 mi
7:55 AM50 °FFog.12 mph100%29.77 "Hg2 mi
7:25 AM50 °FLight rain. Mostly cloudy.13 mph100%29.74 "Hg1 mi
6:55 AM50 °FFog.14 mph100%29.74 "Hg2 mi
6:25 AM50 °FDrizzle. Mostly cloudy.12 mph100%29.74 "Hg1 mi
5:55 AM50 °FDrizzle. Mostly cloudy.10 mph100%29.74 "Hg1 mi
5:25 AM50 °FFog.13 mph100%29.74 "Hg1 mi
4:25 AM50 °FFog.12 mph100%29.77 "Hg1 mi
3:55 AM50 °FFog.13 mph100%29.77 "Hg1 mi
3:25 AM50 °FFog.12 mph100%29.77 "Hg1 mi
2:55 AM50 °FFog.12 mph100%29.77 "Hg1 mi
2:25 AM50 °FFog.10 mph100%29.77 "Hg4 mi
1:55 AM50 °FFog.9 mph94%29.77 "Hg4 mi
1:25 AM50 °FFog.8 mph94%29.77 "Hg4 mi
12:55 AM50 °FFog.9 mph94%29.77 "Hg4 mi
12:25 AM50 °FFog.10 mph94%29.77 "Hg4 mi
11:55 PM
Dec 17
50 °FFog.9 mph94%29.77 "Hg4 mi
11:25 PM48 °FFog.9 mph100%29.77 "Hg4 mi
10:55 PM48 °FFog.9 mph100%29.77 "Hg3 mi
10:25 PM48 °FFog.8 mph100%29.74 "Hg3 mi
Weather by CustomWeather, © 2014

See weather overviewHow to use our weather pages